Location: Newark
(49.3000°N, 9.4667°E)
Time: 03:01:40
(UTC+00:00)

Transit 2A Rocket - Pass Details

Date: 21 May 2019
Orbit: 586 x 917 km, 66.7° (Epoch: 18 June)

Event Time Altitude Azimuth Distance (km) Brightness Sun altitude
Rises 21:16:22 0° 297° (WNW) 3,556 9.4 -15.3°
Reaches altitude 10° 21:20:14 10° 321° (NW) 2,593 9.1 -15.6°
Maximum altitude 21:23:30 15° 354° (N) 2,243 8.4 -15.9°
Drops below altitude 10° 21:26:40 10° 27° (NNE) 2,520 8.2 -16.1°
Sets 21:30:21 0° 51° (NE) 3,395 8.5 -16.4°
